Regional Weather Roundup
Issued by NWS

Home | Current Version | Previous Version | Text Only | Print | Product List | Glossary On
Versions: 1 2 3 4 5 6 7 8 9 10 11 12 13 14 15 16 17 18 19 20 21 22 23 24 25 26 27 28 29 30 31 32 33 34 35 36 37 38 39 40 41 42 43 44 45 46 47 48 49 50
135
ASUS44 KJAN 170803
RWRMS

MISSISSIPPI HOURLY WEATHER ROUNDUP
NATIONAL WEATHER SERVICE JACKSON MS
300 AM CDT THU APR 17 2014

NOTE: "FAIR: INDICATES FEW OR NO CLOUDS BELOW 12,000 FEET WITH NO
SIGNIFICANT WEATHER AND/OR OBSTRUCTIONS TO VISIBILITY.

MSZ001>002-007>008-010>013-018>021-025>028-034>036-170900-
NORTHWEST MISSISSIPPI

CITY           SKY/WX    TMP DP  RH WIND       PRES   REMARKS
CLARKSDALE       N/A     45  41  87 CALM      30.20S
CLEVELAND      FAIR      46  42  86 E5        30.18S
GREENWOOD      CLEAR     47  38  71 VRB3      30.19S
GREENVILLE     CLEAR     43  40  89 CALM      30.17S
GRENADA        FAIR      37  36  93 CALM      30.21R
OLIVE BRANCH   CLEAR     43  36  75 CALM      30.20S
OXFORD         FAIR      41  36  81 CALM      30.21F
TUNICA         SUNNY     41  37  87 CALM      30.20S
$$

MSZ003>006-009-014>017-022>024-029>033-037>039-170900-
NORTHEAST MISSISSIPPI

CITY           SKY/WX    TMP DP  RH WIND       PRES   REMARKS
BELMONT        FAIR      43  36  78 SE3       30.24S
COLUMBUS AFB   CLEAR     42  38  87 SE6       30.23S
CORINTH        FAIR      39  36  87 CALM      30.22S
GOLDN TRIANGLE CLEAR     52  36  54 SE13      30.25S
STARKVILLE     FAIR      46  39  76 E6        30.22R
TUPELO         CLEAR     41  38  89 CALM      30.22S
$$

MSZ040-058-170900-
CENTRAL MISSISSIPPI

CITY           SKY/WX    TMP DP  RH WIND       PRES   REMARKS
JACKSON INTL   CLEAR     45  38  76 CALM      30.18S
JACKSON HAWKNS CLEAR     47  39  74 SE3       30.18S
MERIDIAN KEY   CLEAR     42  39  89 N3        30.21R
MERIDIAN NAS   CLEAR     43  39  86 CALM      30.22R
RAYMOND        FAIR      39  36  87 MISG      30.18S FOG
VICKSBURG      CLEAR     49  44  83 E6        30.18R
$$

MSZ059>079-170900-
SOUTH MISSISSIPPI

CITY           SKY/WX    TMP DP  RH WIND       PRES   REMARKS
BROOKHAVEN     FAIR      41  41 100 CALM      30.17S
COLUMBIA       FAIR      41  41 100 MISG      30.16S
HATTIESBURG    CLEAR     43  41  93 CALM      30.19R
MCCOMB         PTCLDY    43  41  93 CALM      30.15F
NATCHEZ        PTCLDY    45  39  81 CALM      30.15S
PINE BELT      CLEAR     43  39  87 MISG      30.18S
$$

MSZ080>082-170900-
COASTAL MISSISSIPPI

CITY           SKY/WX    TMP DP  RH WIND       PRES   REMARKS
BILOXI         CLOUDY    50  48  93 NE7       30.15S
PASCAGOULA     CLOUDY    49  48  97 N5        30.16S
GULFPORT       CLOUDY    51  46  83 NE3       30.14F
$$



USA.gov is the U.S. government's official web portal to all federal, state and local government web resources and services.